DLH4MK EKCH-EDDN

Flight info

Callsign DLH4MK
Flight time 1h 9m
Altitude 38000
Route SALLO M736 BAKDO DCT MAG M736 TABAT Q244 PIVIR PIVIR1V
Aircraft A20N/M-SDE2E3FGHIRWXY/LB1

Departure

Time 2026-05-04 18:25
Airport Copenhagen Kastrup Airport (EKCH)

Arrival

Time 2026-05-04 19:34
Airport Nuremberg Airport (EDDN)
Time Latitude Longitude Altitude Speed Heading
2026-05-04 17:49 55.62741 12.64040 21 ft 0 kts 33°
2026-05-04 18:13 55.62742 12.64041 21 ft 0 kts 33°
2026-05-04 18:14 55.62734 12.64027 21 ft 2 kts 58°
2026-05-04 18:15 55.62715 12.63986 22 ft 2 kts 50°
2026-05-04 18:15 55.62698 12.63953 22 ft 0 kts 49°
2026-05-04 18:15 55.62695 12.63946 21 ft 0 kts
2026-05-04 18:16 55.62690 12.63947 22 ft 0 kts 315°
2026-05-04 18:16 55.62687 12.63955 22 ft 1 kts 301°
2026-05-04 18:16 55.62686 12.63959 22 ft 0 kts 304°
2026-05-04 18:18 55.62687 12.63957 22 ft 1 kts 304°
2026-05-04 18:18 55.62701 12.63919 21 ft 5 kts 304°
2026-05-04 18:19 55.62640 12.63882 22 ft 10 kts 123°
2026-05-04 18:19 55.62585 12.64035 21 ft 16 kts 124°
2026-05-04 18:19 55.62525 12.64197 21 ft 6 kts 122°
2026-05-04 18:20 55.62489 12.64292 21 ft 13 kts 126°
2026-05-04 18:20 55.62418 12.64437 21 ft 16 kts 153°
2026-05-04 18:20 55.62350 12.64431 21 ft 0 kts 194°
2026-05-04 18:21 55.62321 12.64418 21 ft 10 kts 195°
2026-05-04 18:21 55.62212 12.64354 21 ft 18 kts 208°
2026-05-04 18:22 55.62095 12.64258 22 ft 18 kts 205°
2026-05-04 18:22 55.61980 12.64156 22 ft 18 kts 206°
2026-05-04 18:22 55.61875 12.64076 22 ft 12 kts 200°
2026-05-04 18:22 55.61785 12.64075 22 ft 13 kts 175°
2026-05-04 18:23 55.61760 12.64079 22 ft 0 kts 176°
2026-05-04 18:24 55.61737 12.64082 22 ft 7 kts 176°
2026-05-04 18:24 55.61668 12.64090 22 ft 10 kts 176°
2026-05-04 18:24 55.61604 12.64040 22 ft 11 kts 221°
2026-05-04 18:24 55.61393 12.63716 23 ft 80 kts 223°
2026-05-04 18:25 55.60778 12.62767 22 ft 151 kts 224°
2026-05-04 18:25 55.59901 12.61411 412 ft 177 kts 224°
2026-05-04 18:25 55.58957 12.60012 1187 ft 184 kts 223°
2026-05-04 18:25 55.57942 12.58543 1864 ft 199 kts 225°
2026-05-04 18:26 55.56854 12.56890 2533 ft 216 kts 226°
2026-05-04 18:26 55.55700 12.55055 3250 ft 233 kts 225°
2026-05-04 18:26 55.54284 12.53486 3947 ft 257 kts 202°
2026-05-04 18:26 55.52510 12.52672 4593 ft 267 kts 197°
2026-05-04 18:27 55.50682 12.51922 5014 ft 271 kts 198°
2026-05-04 18:27 55.48852 12.51054 5902 ft 276 kts 200°
2026-05-04 18:27 55.47040 12.50110 7027 ft 273 kts 200°
2026-05-04 18:27 55.45150 12.49654 7989 ft 283 kts 178°
2026-05-04 18:28 55.43293 12.50784 8901 ft 296 kts 151°
2026-05-04 18:28 55.41856 12.53401 9751 ft 308 kts 122°
2026-05-04 18:28 55.41108 12.56972 10514 ft 317 kts 108°
2026-05-04 18:28 55.40517 12.60761 11014 ft 334 kts 107°
2026-05-04 18:29 55.39869 12.64860 11431 ft 353 kts 108°
2026-05-04 18:29 55.39171 12.69090 11916 ft 367 kts 108°
2026-05-04 18:29 55.38434 12.73436 12630 ft 373 kts 109°
2026-05-04 18:29 55.37693 12.77766 13378 ft 378 kts 109°
2026-05-04 18:30 55.36147 12.86717 14850 ft 386 kts 109°
2026-05-04 18:30 55.35363 12.91244 15570 ft 390 kts 109°
2026-05-04 18:30 55.34579 12.95764 16257 ft 393 kts 109°
2026-05-04 18:31 55.33521 13.00183 16922 ft 393 kts 127°
2026-05-04 18:31 55.31679 13.03606 17589 ft 386 kts 149°
2026-05-04 18:31 55.29363 13.05860 18291 ft 382 kts 159°
2026-05-04 18:31 55.26957 13.07899 18915 ft 386 kts 159°
2026-05-04 18:32 55.24530 13.09832 19517 ft 386 kts 166°
2026-05-04 18:32 55.21909 13.10582 20099 ft 379 kts 183°
2026-05-04 18:32 55.19290 13.10588 20717 ft 380 kts 186°
2026-05-04 18:32 55.16611 13.10520 21309 ft 384 kts 186°
2026-05-04 18:33 55.13947 13.10509 21891 ft 388 kts 185°
2026-05-04 18:33 55.11236 13.10557 22488 ft 391 kts 185°
2026-05-04 18:33 55.08508 13.10646 23025 ft 395 kts 185°
2026-05-04 18:33 55.05744 13.10761 23565 ft 399 kts 185°
2026-05-04 18:34 55.03003 13.10891 24121 ft 402 kts 185°
2026-05-04 18:34 55.00187 13.11036 24693 ft 404 kts 185°
2026-05-04 18:34 54.97403 13.11181 25224 ft 406 kts 185°
2026-05-04 18:34 54.94561 13.11328 25744 ft 409 kts 185°
2026-05-04 18:35 54.91702 13.11480 26270 ft 411 kts 185°
2026-05-04 18:35 54.88831 13.11634 26759 ft 414 kts 185°
2026-05-04 18:35 54.85947 13.11788 27247 ft 416 kts 185°
2026-05-04 18:35 54.83062 13.11943 27700 ft 419 kts 186°
2026-05-04 18:36 54.80090 13.12100 28125 ft 421 kts 186°
2026-05-04 18:36 54.77174 13.12254 28516 ft 424 kts 186°
2026-05-04 18:36 54.74195 13.12415 28940 ft 426 kts 186°
2026-05-04 18:36 54.71217 13.12578 29475 ft 424 kts 186°
2026-05-04 18:37 54.68282 13.12741 30014 ft 422 kts 186°
2026-05-04 18:37 54.65346 13.12900 30492 ft 421 kts 186°
2026-05-04 18:37 54.62429 13.13055 30947 ft 419 kts 186°
2026-05-04 18:37 54.59507 13.13206 31362 ft 418 kts 186°
2026-05-04 18:38 54.56634 13.13355 31739 ft 418 kts 186°
2026-05-04 18:38 54.53734 13.13508 32111 ft 418 kts 186°
2026-05-04 18:38 54.50840 13.13493 32442 ft 415 kts 189°
2026-05-04 18:38 54.47981 13.13167 32780 ft 411 kts 193°
2026-05-04 18:39 54.45142 13.12560 33109 ft 409 kts 196°
2026-05-04 18:39 54.42355 13.11687 33414 ft 406 kts 199°
2026-05-04 18:39 54.39608 13.10551 33721 ft 404 kts 202°
2026-05-04 18:39 54.36917 13.09207 34016 ft 404 kts 203°
2026-05-04 18:40 54.34203 13.07851 34339 ft 404 kts 202°
2026-05-04 18:40 54.31534 13.06531 34659 ft 403 kts 202°
2026-05-04 18:40 54.28817 13.05187 34895 ft 404 kts 202°
2026-05-04 18:40 54.26130 13.03856 35125 ft 404 kts 202°
2026-05-04 18:41 54.23433 13.02522 35379 ft 403 kts 202°
2026-05-04 18:41 54.20744 13.01192 35619 ft 403 kts 202°
2026-05-04 18:41 54.18073 12.99870 35803 ft 404 kts 202°
2026-05-04 18:41 54.15374 12.98538 35989 ft 404 kts 202°
2026-05-04 18:42 54.12664 12.97185 36172 ft 404 kts 203°
2026-05-04 18:42 54.10009 12.95666 36323 ft 403 kts 204°
2026-05-04 18:42 54.07341 12.94106 36465 ft 404 kts 204°
2026-05-04 18:42 54.04689 12.92570 36631 ft 405 kts 204°
2026-05-04 18:43 54.02023 12.91027 36794 ft 407 kts 204°
2026-05-04 18:43 53.99361 12.89486 36946 ft 408 kts 204°
2026-05-04 18:43 53.96660 12.87929 36954 ft 409 kts 204°
2026-05-04 18:44 53.91257 12.84817 36975 ft 410 kts 204°
2026-05-04 18:44 53.85906 12.81740 36976 ft 409 kts 204°
2026-05-04 18:45 53.80507 12.78642 36961 ft 409 kts 204°
2026-05-04 18:45 53.75126 12.75564 36981 ft 408 kts 204°
2026-05-04 18:46 53.69774 12.72510 36990 ft 406 kts 204°
2026-05-04 18:46 53.64418 12.69460 36960 ft 407 kts 204°
2026-05-04 18:47 53.59035 12.66404 36966 ft 406 kts 204°
2026-05-04 18:47 53.53674 12.63371 36983 ft 407 kts 204°
2026-05-04 18:48 53.48351 12.60366 36980 ft 406 kts 204°
2026-05-04 18:48 53.42983 12.57342 36964 ft 406 kts 204°
2026-05-04 18:49 53.37626 12.54333 36960 ft 405 kts 204°
2026-05-04 18:49 53.32300 12.51348 36949 ft 405 kts 204°
2026-05-04 18:50 53.26947 12.48358 36950 ft 404 kts 204°
2026-05-04 18:50 53.21640 12.45400 36949 ft 404 kts 204°
2026-05-04 18:51 53.16266 12.42415 36956 ft 405 kts 204°
2026-05-04 18:51 53.10966 12.39478 36949 ft 404 kts 204°
2026-05-04 18:52 53.05608 12.36516 36948 ft 404 kts 204°
2026-05-04 18:52 53.00264 12.33570 36952 ft 404 kts 203°
2026-05-04 18:53 52.94923 12.30631 36962 ft 405 kts 202°
2026-05-04 18:53 52.89562 12.27689 36958 ft 405 kts 202°
2026-05-04 18:54 52.84233 12.24775 36957 ft 405 kts 202°
2026-05-04 18:54 52.78866 12.21847 36956 ft 405 kts 202°
2026-05-04 18:55 52.73535 12.18947 36945 ft 405 kts 202°
2026-05-04 18:55 52.65483 12.14578 36958 ft 405 kts 202°
2026-05-04 18:56 52.60165 12.11702 36956 ft 405 kts 202°
2026-05-04 18:56 52.54800 12.08810 36959 ft 405 kts 202°
2026-05-04 18:57 52.49446 12.05930 36954 ft 404 kts 202°
2026-05-04 18:57 52.44124 12.03074 36961 ft 405 kts 202°
2026-05-04 18:58 52.38725 12.00184 36973 ft 406 kts 202°
2026-05-04 18:58 52.33370 11.97326 36952 ft 405 kts 202°
2026-05-04 18:59 52.28086 11.94520 36954 ft 391 kts 202°
2026-05-04 18:59 52.22998 11.91821 36951 ft 383 kts 202°
2026-05-04 19:00 52.17971 11.89156 36948 ft 377 kts 202°
2026-05-04 19:00 52.13039 11.86549 36933 ft 371 kts 202°
2026-05-04 19:01 52.08153 11.83974 36943 ft 366 kts 202°
2026-05-04 19:01 52.03359 11.81453 36944 ft 362 kts 202°
2026-05-04 19:02 51.98503 11.79324 36933 ft 362 kts 196°
2026-05-04 19:02 51.93583 11.77682 36940 ft 360 kts 196°
2026-05-04 19:03 51.88709 11.76044 36945 ft 357 kts 196°
2026-05-04 19:03 51.83837 11.74394 36821 ft 360 kts 197°
2026-05-04 19:04 51.81331 11.73569 36375 ft 374 kts 193°
2026-05-04 19:04 51.78706 11.73162 35844 ft 391 kts 188°
2026-05-04 19:04 51.75958 11.72885 35297 ft 398 kts 188°
2026-05-04 19:04 51.73182 11.72624 34716 ft 399 kts 188°
2026-05-04 19:05 51.70404 11.72360 34047 ft 401 kts 188°
2026-05-04 19:05 51.67646 11.72093 33387 ft 403 kts 188°
2026-05-04 19:05 51.64827 11.71814 32717 ft 405 kts 188°
2026-05-04 19:05 51.62013 11.71534 32053 ft 407 kts 188°
2026-05-04 19:06 51.59178 11.71250 31389 ft 408 kts 188°
2026-05-04 19:06 51.56348 11.70966 30732 ft 410 kts 188°
2026-05-04 19:06 51.53522 11.70683 30076 ft 411 kts 188°
2026-05-04 19:06 51.50639 11.70392 29412 ft 413 kts 188°
2026-05-04 19:07 51.47780 11.70105 28815 ft 411 kts 187°
2026-05-04 19:07 51.44948 11.69821 28298 ft 408 kts 187°
2026-05-04 19:07 51.42136 11.69540 27806 ft 404 kts 187°
2026-05-04 19:07 51.39338 11.69263 27193 ft 401 kts 187°
2026-05-04 19:08 51.36578 11.68986 26542 ft 397 kts 187°
2026-05-04 19:08 51.33814 11.68710 25886 ft 394 kts 187°
2026-05-04 19:08 51.31105 11.68440 25242 ft 391 kts 187°
2026-05-04 19:08 51.28413 11.68171 24597 ft 387 kts 186°
2026-05-04 19:09 51.25750 11.67905 23960 ft 384 kts 186°
2026-05-04 19:09 51.23077 11.67638 23324 ft 381 kts 186°
2026-05-04 19:09 51.20451 11.67377 22711 ft 378 kts 186°
2026-05-04 19:09 51.17828 11.67118 22127 ft 374 kts 186°
2026-05-04 19:10 51.15241 11.66861 21611 ft 372 kts 186°
2026-05-04 19:10 51.12696 11.66609 21103 ft 369 kts 186°
2026-05-04 19:10 51.10121 11.66355 20587 ft 366 kts 186°
2026-05-04 19:10 51.07614 11.66107 20120 ft 363 kts 186°
2026-05-04 19:11 51.05078 11.65858 19941 ft 362 kts 186°
2026-05-04 19:11 51.02559 11.65610 19934 ft 363 kts 186°
2026-05-04 19:11 51.00042 11.65361 19934 ft 363 kts 186°
2026-05-04 19:11 50.97508 11.65112 19938 ft 363 kts 186°
2026-05-04 19:12 50.94972 11.64865 19935 ft 363 kts 186°
2026-05-04 19:12 50.89996 11.64376 19938 ft 364 kts 186°
2026-05-04 19:12 50.87389 11.64121 19938 ft 364 kts 186°
2026-05-04 19:13 50.84874 11.63875 19937 ft 365 kts 186°
2026-05-04 19:13 50.82317 11.63625 19934 ft 365 kts 186°
2026-05-04 19:13 50.79784 11.63379 19935 ft 365 kts 186°
2026-05-04 19:13 50.77266 11.63133 19938 ft 364 kts 186°
2026-05-04 19:14 50.74746 11.62887 19938 ft 364 kts 186°
2026-05-04 19:14 50.72192 11.62638 19937 ft 364 kts 186°
2026-05-04 19:14 50.69655 11.62391 19936 ft 364 kts 186°
2026-05-04 19:14 50.67128 11.62145 19939 ft 364 kts 186°
2026-05-04 19:15 50.64629 11.61902 19939 ft 364 kts 186°
2026-05-04 19:15 50.62077 11.61656 19939 ft 364 kts 186°
2026-05-04 19:15 50.59546 11.61411 19782 ft 363 kts 186°
2026-05-04 19:15 50.57033 11.61169 19426 ft 361 kts 186°
2026-05-04 19:16 50.54550 11.60929 19071 ft 359 kts 186°
2026-05-04 19:16 50.52063 11.60689 18717 ft 357 kts 186°
2026-05-04 19:16 50.49568 11.60448 18360 ft 355 kts 186°
2026-05-04 19:16 50.47095 11.60211 18004 ft 354 kts 186°
2026-05-04 19:17 50.44629 11.59974 17653 ft 352 kts 186°
2026-05-04 19:17 50.42205 11.59741 17310 ft 350 kts 186°
2026-05-04 19:17 50.39761 11.59508 16962 ft 348 kts 186°
2026-05-04 19:17 50.37371 11.59279 16618 ft 346 kts 186°
2026-05-04 19:18 50.34941 11.59045 16266 ft 344 kts 186°
2026-05-04 19:18 50.32573 11.58818 15920 ft 342 kts 186°
2026-05-04 19:18 50.30199 11.58591 15573 ft 340 kts 186°
2026-05-04 19:18 50.27847 11.58367 15229 ft 338 kts 186°
2026-05-04 19:19 50.25539 11.58147 14898 ft 335 kts 186°
2026-05-04 19:19 50.23198 11.57924 14631 ft 334 kts 186°
2026-05-04 19:19 50.20887 11.57705 14362 ft 332 kts 186°
2026-05-04 19:19 50.18595 11.57489 14090 ft 330 kts 186°
2026-05-04 19:20 50.16303 11.57271 13820 ft 327 kts 186°
2026-05-04 19:20 50.14042 11.57057 13549 ft 325 kts 186°
2026-05-04 19:20 50.11792 11.56844 13274 ft 324 kts 186°
2026-05-04 19:20 50.09542 11.56632 12991 ft 323 kts 186°
2026-05-04 19:21 50.07312 11.56422 12402 ft 321 kts 186°
2026-05-04 19:21 50.05082 11.56212 11776 ft 318 kts 186°
2026-05-04 19:21 50.02912 11.56009 11163 ft 315 kts 186°
2026-05-04 19:21 50.00723 11.55803 10539 ft 312 kts 186°
2026-05-04 19:22 49.98596 11.55604 9915 ft 298 kts 186°
2026-05-04 19:22 49.96590 11.55418 9289 ft 281 kts 186°
2026-05-04 19:22 49.94681 11.55238 8669 ft 274 kts 186°
2026-05-04 19:22 49.92767 11.55045 8046 ft 272 kts 186°
2026-05-04 19:23 49.90890 11.54845 7429 ft 271 kts 186°
2026-05-04 19:23 49.89037 11.54530 6816 ft 269 kts 189°
2026-05-04 19:23 49.87188 11.54127 6249 ft 268 kts 189°
2026-05-04 19:23 49.85347 11.53701 5966 ft 269 kts 190°
2026-05-04 19:24 49.83478 11.53263 5939 ft 270 kts 189°
2026-05-04 19:24 49.81620 11.52823 5939 ft 270 kts 190°
2026-05-04 19:24 49.79751 11.52377 5941 ft 270 kts 190°
2026-05-04 19:24 49.77880 11.51930 5943 ft 270 kts 189°
2026-05-04 19:25 49.76055 11.51492 5945 ft 271 kts 190°
2026-05-04 19:25 49.74188 11.51045 5942 ft 270 kts 190°
2026-05-04 19:25 49.72340 11.50604 5943 ft 271 kts 189°
2026-05-04 19:25 49.70460 11.50153 5946 ft 270 kts 190°
2026-05-04 19:26 49.68597 11.49702 5945 ft 270 kts 190°
2026-05-04 19:26 49.66737 11.49249 5917 ft 268 kts 190°
2026-05-04 19:26 49.64924 11.48810 5572 ft 267 kts 190°
2026-05-04 19:26 49.63056 11.48358 5115 ft 269 kts 190°
2026-05-04 19:27 49.61220 11.47912 4694 ft 271 kts 189°
2026-05-04 19:27 49.59356 11.47452 4280 ft 272 kts 190°
2026-05-04 19:27 49.57487 11.46988 4018 ft 271 kts 190°
2026-05-04 19:27 49.55621 11.46524 4000 ft 273 kts 190°
2026-05-04 19:28 49.53724 11.46050 3998 ft 273 kts 190°
2026-05-04 19:28 49.51844 11.45580 3997 ft 274 kts 190°
2026-05-04 19:28 49.49970 11.45110 3996 ft 274 kts 189°
2026-05-04 19:28 49.48086 11.44627 3997 ft 274 kts 192°
2026-05-04 19:29 49.46338 11.43492 3982 ft 271 kts 219°
2026-05-04 19:29 49.45198 11.41361 3979 ft 253 kts 249°
2026-05-04 19:29 49.44912 11.38832 3977 ft 232 kts 280°
2026-05-04 19:29 49.45385 11.36602 3986 ft 213 kts 297°
2026-05-04 19:30 49.46029 11.34641 3979 ft 201 kts 299°
2026-05-04 19:30 49.46690 11.32743 3924 ft 200 kts 300°
2026-05-04 19:30 49.47285 11.30837 3769 ft 195 kts 293°
2026-05-04 19:30 49.47679 11.28885 3549 ft 188 kts 286°
2026-05-04 19:31 49.47960 11.26956 3270 ft 183 kts 284°
2026-05-04 19:31 49.48178 11.25091 3003 ft 171 kts 282°
2026-05-04 19:31 49.48352 11.23341 2756 ft 159 kts 281°
2026-05-04 19:31 49.48506 11.21719 2530 ft 149 kts 281°
2026-05-04 19:32 49.48652 11.20179 2312 ft 145 kts 281°
2026-05-04 19:32 49.48803 11.18634 2155 ft 144 kts 281°
2026-05-04 19:32 49.48960 11.17103 1995 ft 146 kts 281°
2026-05-04 19:32 49.49106 11.15548 1804 ft 147 kts 281°
2026-05-04 19:33 49.49265 11.14013 1623 ft 146 kts 280°
2026-05-04 19:33 49.49414 11.12480 1438 ft 146 kts 281°
2026-05-04 19:33 49.49561 11.10941 1252 ft 144 kts 281°
2026-05-04 19:33 49.49707 11.09448 1062 ft 140 kts 280°
2026-05-04 19:34 49.49838 11.08124 1031 ft 101 kts 279°
2026-05-04 19:34 49.49924 11.07267 1025 ft 69 kts 277°
2026-05-04 19:34 49.49981 11.06656 1023 ft 25 kts 277°
2026-05-04 19:34 49.49963 11.06504 1023 ft 13 kts 221°
2026-05-04 19:35 49.49890 11.06494 1022 ft 3 kts 160°
2026-05-04 19:35 49.49881 11.06499 1023 ft 0 kts 160°
2026-05-04 19:36 49.49867 11.06507 1022 ft 5 kts 160°
2026-05-04 19:36 49.49813 11.06551 1022 ft 11 kts 136°
2026-05-04 19:37 49.49787 11.06697 1022 ft 16 kts 99°
2026-05-04 19:37 49.49766 11.06903 1023 ft 22 kts 99°
2026-05-04 19:37 49.49742 11.07144 1024 ft 16 kts 99°
2026-05-04 19:37 49.49701 11.07229 1024 ft 10 kts 173°
2026-05-04 19:38 49.49632 11.07257 1024 ft 9 kts 103°
2026-05-04 19:38 49.49624 11.07379 1025 ft 14 kts 99°
2026-05-04 19:38 49.49610 11.07525 1026 ft 8 kts 97°
2026-05-04 19:38 49.49600 11.07584 1026 ft 7 kts 131°
2026-05-04 19:39 49.49555 11.07590 1026 ft 5 kts 190°
2026-05-04 19:39 49.49542 11.07587 1026 ft 0 kts 189°
2026-05-04 19:39 49.49538 11.07586 1026 ft 0 kts 189°